Find Kosmos-1791

NORAD ID: 17066 Int'l Des: 1986-086 Owner: VMF Country: SU operational
LEOCIRCULARPOLAR

Live Position

Loading 3D Globe...

About Kosmos-1791

Description loading...

Upcoming Passes

Passes for default location (London). Set your location on the main map for personalized predictions.

Altitude History

Loading altitude history...

Two-Line Element Set

1 17066U 86086A 26107.12460862 .00000067 00000-0 52316-4 0 9997
2 17066 82.9450 306.7444 0041889 51.2526 69.8605 13.76050408979798
Epoch: Apr 17, 2026 • Age: 17 hours

Current Status

Altitude 967.7 km
Velocity 7.39 km/s
Sub-Earth Point 82.87°N, 124.05°W
Launch Date Nov 13, 1986
Age 39.4 years
Type other

Technical Details

Classification Payload
Mass 800.00 kg
Dry Mass 800.00 kg
Total Mass 800.00 kg
Length 5.00 m
Diameter 2.10 m
Span 17.00 m
Shape Cyl + Ant
Manufacturer OAZ
Bus Type KAUR-1 11F643
Phase Status In Orbit
Owner/State VMF/SU

Most Searched